Location: Bj�rn�ya
(74.5000°N, 19.0000°E)
Time: 02:23:01
(UTC+02:00)

Envisat - Pass Details

Date: 29 January 2022
Orbit: 764 x 765 km, 98.2° (Epoch: 21 May)

Event Time Altitude Azimuth Distance (km) Brightness Sun altitude
Rises 01:37:31 0° 2° (N) 3,248 7.1 -31.8°
Reaches altitude 10° 01:41:40 10° 35° (NE) 2,318 6.3 -31.7°
Maximum altitude 01:43:23 12° 55° (NE) 2,209 6.1 -31.7°
Drops below altitude 10° 01:45:02 10° 74° (ENE) 2,309 6.0 -31.6°
Sets 01:49:13 0° 108° (ESE) 3,239 6.4 -31.5°
